{"data":{"norad_id":63161,"epoch":"2026-09-22T21:41:56.390496Z","epoch_age_seconds":103505,"freshness":"FRESH","line1":"1 63161U 25046C   26265.90412489  .00000089  00000+0  11819-3 0  9991","line2":"2 63161  88.9642 290.6416 0016988  32.6545 327.5653 13.51031425 85718","mean_motion":13.51031425,"eccentricity":0.0016988,"inclination_deg":88.9642,"raan_deg":290.6416,"arg_perigee_deg":32.6545,"mean_anomaly_deg":327.5653,"bstar":0.00011819,"rev_number":8571,"period_min":106.58523357442,"perigee_km":1055.8158216164,"apogee_km":1081.1164003463,"semimajor_km":7446.6031109814,"source":"CELESTRAK","updated_at":"2026-09-23T09:00:21.846643Z"}}